カタログに戻る

WORLDVIEW 1

運用中科学SSO
NORAD 32060·PAYLOAD·🇺🇸 United States

打ち上げ Sep 18, 2007 から Vandenberg Space Force Base

Loading…

次のパス (今後24時間)

TLE

最新Source: Space-Track

元期: Sep 14, 2026, 13:29 UTC

1 32060U 07041A   26257.56215347  .00004885  00000-0  20099-3 0  9996
2 32060  97.3874  16.0288 0001997  92.5681 267.5786 15.24605403 56498

AllMySatでWORLDVIEW 1をリアルタイム追跡

Download on the App Store